Theta_e
286 283 278 279 280 281 280 279 278 281 282 280 277 280 284 286 283 283 283 283 285 287 293 293 290 287 285 283 284 283 283 283 282 281 280 280 279 281 281 284 284 284 282 282
284 278 281 283 283 280 280 280 278 281 281 279 279 281 283 283 282 282 283 285 285 288 290 289 287 284 284 284 283 283 283 283 283 282 281 280 279 280 280 281 281 281 281 281
281 279 283 282 280 279 279 279 277 278 280 279 278 282 283 283 283 283 284 284 286 288 289 288 286 284 283 283 282 283 283 282 282 281 281 280 279 279 278 278 278 279 280 279
281 283 281 281 279 279 278 281 280 279 278 275 279 277 282 282 282 282 282 281 282 284 289 288 286 284 283 282 281 282 282 281 280 280 278 276 275 274 275 275 276 277 277 276
280 280 281 280 280 280 279 281 279 279 276 276 277 273 282 281 284 283 281 281 280 282 284 284 283 283 281 280 280 279 279 279 279 278 277 276 275 275 275 274 274 275 275 276
280 283 280 279 281 281 282 281 280 278 275 272 270 274 281 283 283 281 280 281 281 280 280 280 281 281 280 279 278 278 278 277 277 277 276 275 274 273 273 273 273 273 274 274
281 280 280 281 279 281 280 279 274 276 273 276 264 272 283 285 282 282 283 281 281 280 279 279 279 278 277 277 277 277 277 276 276 276 275 275 274 273 272 272 272 271 271 271
275 279 279 281 279 277 278 277 275 270 271 274 266 272 283 283 280 280 281 281 281 280 280 279 279 277 276 276 276 276 276 275 275 275 274 274 274 273 272 272 271 271 270 270
275 280 280 281 280 280 279 274 277 268 259 266 274 279 285 282 281 280 280 280 280 280 279 278 277 276 275 275 275 275 275 275 274 274 273 273 273 272 271 271 271 270 270 270
277 275 278 280 280 279 279 279 275 273 269 268 274 270 280 282 282 280 279 280 280 280 278 277 276 275 275 274 275 274 274 274 274 273 273 272 272 272 271 270 269 269 269 269
279 276 280 279 275 277 275 274 275 275 275 270 266 277 281 282 281 279 280 280 279 278 279 278 275 275 275 275 274 273 273 273 273 273 272 271 271 270 270 269 269 268 268 267
280 278 273 281 279 279 279 278 278 276 274 270 270 274 281 279 273 271 278 280 279 276 277 277 276 275 276 275 273 273 273 272 272 272 271 270 270 269 268 268 268 268 267 267
281 276 274 282 279 278 275 278 277 273 276 271 270 281 277 272 274 277 276 279 278 276 275 276 276 276 275 275 274 273 273 272 272 271 270 269 268 268 267 267 267 266 266 265
284 279 278 280 284 279 278 277 277 275 268 274 277 284 288 289 289 289 281 279 281 280 277 275 276 276 275 275 272 272 272 272 271 269 268 268 267 266 266 266 265 265 264 264
280 272 274 276 277 275 280 278 274 273 276 274 284 282 288 290 289 289 285 283 281 277 275 276 275 275 274 273 271 271 271 270 268 266 265 265 265 265 264 264 263 263 263 263
279 274 270 273 277 277 276 279 278 278 279 277 279 278 287 288 288 287 286 284 279 278 277 275 275 275 273 272 271 271 268 264 264 261 262 262 263 262 262 262 262 262 262 262
275 270 268 273 271 274 281 282 278 275 276 278 278 289 286 287 286 285 285 283 283 280 277 275 274 273 272 271 269 264 261 258 256 258 259 260 260 260 259 260 260 260 260 261
269 273 270 270 270 272 287 286 284 283 285 282 282 287 289 289 286 285 285 286 283 278 276 275 274 271 271 268 263 259 259 257 256 258 257 257 257 257 258 258 258 258 259 259
278 272 277 269 263 279 288 284 282 281 284 289 285 287 288 282 284 286 283 282 279 276 276 275 273 271 268 265 262 259 259 256 258 258 257 257 257 258 258 257 257 258 260 260
279 280 274 264 274 281 289 280 278 281 286 291 288 289 287 284 288 293 279 277 277 276 275 273 272 271 269 268 268 266 262 259 261 261 260 259 259 258 257 257 258 260 259 260
275 276 275 276 276 279 286 282 282 283 292 288 288 288 285 288 290 282 278 276 276 275 273 272 270 269 268 268 266 265 264 262 263 263 262 260 260 259 258 259 259 259 259 260
279 275 273 275 275 279 282 283 288 297 291 288 285 287 288 288 281 277 276 275 274 272 272 270 269 268 267 267 265 264 263 263 262 261 260 259 259 260 261 260 260 260 260 259
284 289 285 284 282 289 286 292 296 290 289 292 289 288 289 287 281 277 275 274 273 272 271 270 267 266 265 265 264 262 262 261 260 258 257 258 259 261 261 260 259 260 260 260
285 289 286 289 296 294 298 299 297 295 293 292 290 290 288 287 282 276 274 273 272 271 269 267 265 264 263 263 263 260 259 259 254 255 257 258 259 259 259 260 261 260 260 260
292 287 289 291 295 296 297 299 300 297 289 286 287 288 288 286 279 276 274 273 271 270 267 265 264 263 261 261 259 256 258 255 256 257 257 258 258 258 258 260 259 261 263 264
290 295 290 293 301 300 300 291 293 289 288 288 286 282 283 283 278 276 274 273 270 268 266 264 264 263 261 259 258 258 257 257 254 256 258 257 257 257 258 258 258 263 266 268
Wind_Speed
7 10 4 1 2 2 2 2 5 6 3 8 2 15 18 9 3 5 5 6 8 8 5 6 7 6 6 4 4 5 5 2 2 2 2 2 2 2 3 2 6 5 7 7
9 4 1 3 2 1 2 3 6 8 2 2 8 22 7 3 1 2 5 7 3 2 2 3 5 5 6 4 3 3 3 3 3 2 1 1 2 2 3 3 4 6 8 8
6 0 3 1 4 5 1 2 3 5 10 1 9 10 4 1 2 2 4 3 5 2 3 5 6 5 3 2 3 4 4 6 5 5 3 3 3 2 2 4 4 7 7 8
5 4 2 1 1 1 3 1 1 5 6 4 6 7 7 2 3 2 2 4 5 6 3 2 4 4 3 3 5 6 6 6 6 5 4 4 2 3 3 3 4 5 6 9
1 5 5 3 2 1 4 1 1 2 3 4 5 4 11 2 6 8 4 1 4 5 5 6 6 6 6 6 6 6 6 6 5 5 5 3 3 3 3 3 7 6 7 8
2 1 2 2 4 2 4 3 6 4 3 4 2 4 10 5 6 1 2 4 2 2 5 6 6 6 6 5 6 5 5 5 6 6 5 5 5 6 6 7 6 6 6 6
6 1 1 2 3 1 6 5 6 9 7 6 3 1 15 6 4 4 7 9 8 5 4 4 5 5 4 5 5 4 5 5 5 5 5 6 6 6 7 8 7 9 7 6
4 8 3 6 5 1 4 4 6 4 4 7 2 8 9 4 2 3 4 6 5 5 4 5 5 5 5 4 4 4 5 5 5 5 7 6 7 5 5 7 8 6 7 8
4 6 2 3 2 2 2 4 1 7 2 4 4 10 13 3 7 6 7 6 7 7 7 6 5 5 5 4 3 4 5 4 6 6 7 7 6 8 8 9 8 7 9 9
2 6 0 1 0 2 3 3 4 4 3 6 8 8 10 8 9 7 9 11 9 7 6 5 4 5 4 3 2 4 4 4 5 6 7 7 7 8 8 8 10 10 10 10
4 4 5 3 4 7 1 2 4 3 4 5 4 11 10 11 6 8 11 10 9 7 6 4 4 4 4 3 3 3 4 6 6 7 8 8 8 8 9 9 9 10 11 11
2 3 5 9 2 1 1 3 4 6 7 3 2 16 4 5 4 4 10 8 5 2 3 5 6 5 2 2 2 3 4 5 6 6 7 8 9 9 9 10 11 11 11 10
5 2 5 9 2 3 3 4 4 3 2 8 4 13 3 4 6 7 10 7 5 4 5 4 5 4 0 1 2 3 4 5 7 6 7 8 8 9 10 11 12 11 11 11
1 1 7 7 10 2 6 6 5 6 3 5 18 29 29 26 24 15 8 9 10 5 5 5 4 3 2 1 2 3 4 5 6 7 7 9 9 10 11 11 12 12 11 11
4 5 2 7 13 6 19 11 7 12 12 9 28 14 32 26 21 20 5 1 1 4 7 6 6 4 3 4 1 3 3 3 5 6 6 8 10 10 11 11 12 11 11 10
2 4 3 8 6 9 11 14 15 19 17 17 27 34 32 29 19 14 9 4 6 6 7 7 6 5 4 2 1 3 3 4 3 4 5 7 9 10 10 11 11 11 11 11
3 4 4 9 6 13 12 12 10 6 8 7 8 22 6 14 7 5 4 5 6 6 7 8 6 4 3 1 1 3 3 3 3 4 5 7 9 10 10 10 10 10 11 11
6 4 2 6 6 2 10 7 10 12 15 17 16 21 21 13 1 5 4 5 5 7 8 6 5 4 3 3 0 2 3 3 3 5 6 7 8 9 8 9 10 10 10 10
1 5 2 2 3 13 12 3 6 6 11 17 16 21 15 1 3 8 4 2 4 6 6 6 4 4 4 3 2 0 4 4 4 6 6 7 6 10 9 10 10 10 10 10
2 2 3 2 5 8 5 3 3 5 12 8 13 11 4 3 13 11 7 8 9 9 8 8 8 6 4 3 3 3 3 4 6 7 7 7 8 8 8 10 10 10 9 10
4 2 8 9 8 15 16 6 3 2 18 4 7 6 7 5 6 3 9 7 9 9 9 8 6 5 4 4 3 3 4 4 7 9 9 9 9 9 7 8 8 8 9 10
12 12 8 3 6 17 11 4 10 16 1 3 4 4 6 6 5 7 8 10 11 11 10 9 6 5 4 4 3 3 4 6 7 8 9 10 10 9 7 9 8 9 9 9
4 12 10 16 16 6 13 12 10 4 5 12 5 6 8 6 8 11 10 12 10 11 9 6 6 6 4 3 2 2 4 5 7 7 8 8 10 10 9 9 9 8 8 8
7 4 6 2 21 29 25 22 21 17 18 12 6 8 9 9 10 11 11 10 10 9 8 5 6 5 4 2 2 1 3 4 4 7 8 8 9 10 8 7 6 7 7 8
8 10 12 21 31 31 24 25 21 15 3 4 5 8 11 8 10 12 10 12 10 9 7 6 6 5 4 2 1 3 2 3 5 6 7 7 7 9 9 6 7 8 8 10
9 17 11 20 30 21 22 3 5 6 6 10 8 4 3 10 11 12 12 11 12 10 8 6 5 5 5 4 2 2 2 2 3 5 5 6 7 7 7 8 9 13 16 19
Wind_Direction
12 64 67 8 9 296 297 272 275 264 12 333 281 283 296 303 297 325 310 275 256 249 261 182 162 150 137 141 149 162 155 131 66 18 1 1 333 322 330 355 342 345 347 340
27 70 340 282 337 315 225 293 291 288 315 5 338 296 275 250 227 334 330 359 330 178 99 134 137 148 162 167 169 135 117 81 45 46 30 7 295 302 299 355 340 354 342 346
105 65 322 22 26 11 233 261 336 268 324 203 318 297 332 349 58 28 2 342 12 346 187 175 177 165 157 134 138 130 100 76 54 47 21 351 335 331 358 339 332 339 342 344
81 314 19 43 53 20 330 115 303 304 24 287 19 280 312 334 264 223 291 16 3 8 45 112 165 159 158 107 95 85 77 67 61 36 39 38 8 335 314 320 321 321 337 335
292 7 8 16 322 160 244 267 276 86 83 13 357 76 266 322 262 234 203 136 36 32 45 59 59 87 85 86 93 98 88 73 57 54 46 24 0 320 307 306 326 335 334 330
110 168 72 272 292 260 334 20 27 61 92 21 270 91 281 236 217 195 186 193 187 136 91 90 82 86 87 81 83 81 79 58 44 38 28 15 7 334 340 337 328 327 319 328
350 33 341 21 321 147 26 41 345 359 8 234 237 28 246 262 246 225 222 205 198 160 133 133 128 116 101 77 53 65 46 44 35 29 20 2 356 344 336 331 326 323 322 324
75 326 30 5 50 271 12 102 143 250 272 282 11 239 252 222 276 261 233 194 169 158 166 163 160 134 111 80 58 45 32 31 30 23 5 353 351 338 327 326 323 315 322 317
38 281 96 60 0 82 338 48 129 100 72 24 262 283 291 272 272 251 231 212 209 204 202 190 143 145 123 98 76 44 28 27 17 10 357 342 342 334 325 323 315 317 316 311
60 331 326 105 205 76 118 156 40 7 335 289 286 273 242 291 273 252 249 237 222 206 201 188 160 140 129 103 68 53 31 14 6 358 347 339 325 323 319 316 318 317 314 316
139 118 277 78 192 186 36 25 32 120 143 205 289 264 215 236 225 249 245 235 227 214 200 161 150 143 135 110 51 38 10 0 351 347 338 327 321 321 319 314 313 315 310 312
202 157 268 236 173 314 293 181 160 119 279 233 158 268 237 256 247 227 267 244 228 214 164 159 156 162 169 71 47 356 357 341 345 332 324 317 317 317 314 312 311 310 309 308
181 300 333 339 350 13 215 199 132 119 71 218 156 265 262 274 287 254 255 256 236 186 166 176 159 160 49 345 343 331 332 335 335 330 326 317 316 315 314 314 312 312 310 308
164 221 187 208 237 112 258 179 198 147 163 217 233 277 280 287 289 295 256 238 242 184 180 196 166 165 203 253 283 324 327 338 335 336 325 319 323 322 319 317 315 314 313 305
131 224 281 265 275 254 269 258 208 202 226 219 276 263 277 278 296 294 272 237 232 189 180 189 179 189 205 247 287 326 315 327 352 333 322 320 322 323 320 319 316 314 308 304
31 272 47 289 293 273 277 255 222 234 252 253 262 277 263 273 279 278 275 225 211 203 188 182 177 184 221 231 291 325 321 354 355 324 314 313 319 321 319 316 315 313 309 308
132 120 58 268 339 325 294 250 175 201 217 180 220 257 321 294 286 273 256 203 234 188 172 170 167 184 191 186 334 301 324 331 341 317 312 317 312 314 312 309 311 310 311 311
132 106 121 262 357 295 239 228 191 199 253 211 266 273 274 285 271 259 216 214 202 149 149 144 158 158 151 105 7 326 338 334 318 315 309 299 301 306 309 311 309 309 309 307
86 126 246 248 226 294 278 186 151 174 269 235 224 250 268 47 288 261 168 157 141 131 136 146 139 120 120 150 199 11 338 340 321 307 302 300 304 313 317 310 308 306 307 315
96 81 125 64 237 268 219 139 184 159 293 233 205 237 221 138 304 316 152 137 130 127 136 147 133 120 123 89 47 6 336 325 319 321 312 307 306 305 307 299 306 310 309 306
149 166 218 235 258 272 266 179 183 81 293 158 164 199 175 248 242 107 130 127 133 137 140 122 125 130 111 84 42 6 333 318 322 321 319 315 311 309 295 296 310 301 306 306
173 163 201 195 222 279 152 96 186 266 279 154 189 210 237 232 154 147 144 144 145 147 146 140 140 133 111 76 42 339 317 331 324 321 319 318 313 313 320 316 311 316 314 313
225 201 192 198 219 240 197 236 259 185 264 283 215 207 221 203 186 166 165 157 151 160 150 143 146 134 118 87 108 316 335 334 323 321 316 309 311 316 324 318 318 318 317 311
239 219 238 312 245 251 259 262 255 257 255 265 199 204 193 209 171 167 154 149 154 162 153 149 145 147 145 138 35 268 302 318 314 312 310 313 316 318 318 314 314 314 315 308
191 144 221 250 268 278 266 261 271 270 142 173 206 205 204 177 175 159 152 155 161 164 154 153 155 150 156 153 227 267 310 336 327 311 309 315 315 315 318 319 316 320 308 307
180 221 219 248 254 262 285 211 196 187 213 217 194 210 193 176 156 149 158 161 164 162 148 152 157 139 168 177 227 257 273 307 308 321 325 317 314 316 319 325 323 323 324 331